Lexington Weather

Lexington, Massachusetts, USA

24°F
2/26/2021 6:58am 
  • Lexington Conditions: Clear
  • Temperature: 24.4°F / -4.2°CColder 1.7°F than last hour.
  • Dew Point: 14.7°FDecreased 0.9°Fsince last hour.
  • Relative Humidity: 66%Increased 2.0% since last hour.
  • Wind: Calm, 10-min avg: Calm, gust: None
  • Barometer: 30.32 inRising 0.03  inHg/hr Rising Slowly
  • Visibility: 10 miles
  • Snow Today: 0.0 in
  •   

Regional Weather Roundup
for Boston / Norton, MA

        
000
ASUS41 KBOX 230804
RWRBOX

REGIONAL WEATHER ROUNDUP
NATIONAL WEATHER SERVICE BOSTON/NORTON MA
300 AM EST TUE FEB 23 2021

NOTE:  "FAIR" INDICATES FEW OR NO CLOUDS BELOW 12,000 FEET WITH NO 
SIGNIFICANT WEATHER AND/OR OBSTRUCTIONS TO VISIBILITY.

MAZALL-230900-
EASTERN MASSACHUSETTS
  
CITY           SKY/WX    TMP DP  RH WIND       PRES   REMARKS
BOSTON         PTCLDY    34  29  82 W15       29.61S WCI  24          
BEVERLY        CLEAR     34  30  85 W8        29.58F WCI  27          
LAWRENCE       PTCLDY    31  28  89 SW8       29.59F WCI  23          
BEDFORD        MOCLDY    31  29  92 SW7       29.60S WCI  24          
BLUE HILL        N/A     31  30  96 W13       29.58R WCI  21          
NORWOOD        MOCLDY    34  29  82 SW5       29.62S WCI  30          
MARSHFIELD     PTCLDY    36  32  87 SW6       29.61S WCI  31          
PLYMOUTH       PTCLDY    33  30  88 SW7       29.61S WCI  27          
TAUNTON        PTCLDY    34  30  85 W3        29.62S                  
NEW BEDFORD    CLEAR     35  31  85 SW6       29.64R WCI  30          
$$

MAZALL-230900-
CAPE COD AND THE ISLANDS
  
CITY           SKY/WX    TMP DP  RH WIND       PRES   REMARKS
FALMOUTH       CLEAR     32  30  93 SW7       29.64R WCI  26          
HYANNIS        CLEAR     34  32  92 W7        29.61S WCI  28          
CHATHAM        CLEAR     34  31  88 W5        29.63S WCI  30          
PROVINCETOWN   CLEAR     36  32  85 W13       29.61F WCI  27          
NANTUCKET      CLEAR     35  34  96 W13       29.64F WCI  26          
MARTHAS VNYRD  CLEAR     35  33  92 W7        29.65S WCI  29          
$$
 
MAZALL-230900-
CENTRAL AND WESTERN MASSACHUSETTS
  
CITY           SKY/WX    TMP DP  RH WIND       PRES   REMARKS
WORCESTER      CLOUDY    33  28  81 W9        29.58S WCI  25          
FITCHBURG      MOCLDY    35  31  85 W10       29.60R WCI  27          
ORANGE         CLOUDY    33  30  88 SW3       29.61S                  
SPRINGFIELD    CLOUDY    32  30  91 W6        29.63S WCI  27          
WESTFIELD      CLOUDY    33  30  88 SW7       29.64S WCI  27          
NORTH ADAMS    CLOUDY    35  27  72 W15       29.61F WCI  25          
PITTSFIELD     CLOUDY    32  27  81 W6        29.59F WCI  26          
$$
 
RIZALL-230900-
RHODE ISLAND
  
CITY           SKY/WX    TMP DP  RH WIND       PRES   REMARKS
PROVIDENCE     CLEAR     33  31  92 SW10      29.66R WCI  25          
NEWPORT        CLEAR     33  31  92 VRB6      29.65R WCI  28          
BLOCK ISLAND   CLEAR     34  31  88 W12       29.69R WCI  25          
SMITHFIELD     CLEAR     31  31 100 W9        29.62S WCI  23          
WESTERLY       CLEAR     31  31 100 CALM      29.67S                  
$$
 
CTZALL-230900-
CONNECTICUT
  
CITY           SKY/WX    TMP DP  RH WIND       PRES   REMARKS
BRADLEY INTL   MOCLDY    33  28  81 SW6       29.65F WCI  28          
HARTFORD       MOCLDY    33  29  85 CALM      29.67F                  
BRIDGEPORT     PTCLDY    35  31  85 SW9       29.71F WCI  28          
DANBURY        CLOUDY    37  28  70 SW7       29.70S WCI  32          
GROTON         CLEAR     33  30  88 W8        29.68S WCI  26          
NEW HAVEN      CLEAR     36  32  85 W9        29.69F WCI  29          
CHESTER        FAIR      32  30  93 W6        29.67S WCI  26          
MERIDEN        MOCLDY    30  27  88 CALM      29.68S                  
WILLIMANTIC    MOCLDY    32  29  88 S3        29.66S                  
OXFORD         CLOUDY    31  31 100 SW3       29.67F                  
$$

MEZ002-015-021-024-NHZ003-005-008-011-012-014-VTZ005-008-230900-
NORTHERN NEW ENGLAND
  
CITY           SKY/WX    TMP DP  RH WIND       PRES   REMARKS
PORTLAND ME    CLEAR     29  27  92 W9        29.52F WCI  20          
BANGOR ME      LGT SNOW  33  32  96 NW13      29.41F FOG     WCI  24  
CONCORD NH     PTCLDY    24  21  88 CALM      29.56F                  
MANCHESTER NH  MOCLDY    32  27  81 S3        29.56F                  
NASHUA NH      LGT SNOW  26  26 100 SE3       29.59S FOG              
PORTSMOUTH NH  PTCLDY    31  28  90 W8        29.54F WCI  23          
JAFFREY NH     CLOUDY    33  28  81 W3        29.56F                  
KEENE NH       CLOUDY    33  30  88 SW7       29.59F WCI  27          
BURLINGTON VT  CLOUDY    33  28  81 S7        29.55F WCI  27          
MT. WASHINGTON SNOW      12  12 100 W68G74      N/A  VSB 0   WCI -17  
$$

NYZ052-076-230900-
EASTERN NEW YORK
  
CITY           SKY/WX    TMP DP  RH WIND       PRES   REMARKS
ALBANY         CLOUDY    32  28  85 SW6       29.64F WCI  26          
NEW YORK CITY  CLOUDY    39  27  62 W18G28    29.73F WCI  30          
$$
 
ANZALL-230900-
MARINE OBSERVATIONS
  
STATION/POSITION TIME  TEMP    WIND        PRES    VSBY  WAVE
                       AIR SEA DIR/SP/G                  HT/PER
                 (UTC) (F)     (DEG/KT/KT) (MB)    (MI)  (FT/S)
BOSTON BUOY      0740   37 39  270/ 16/ 19 1002.8S
BUZZARDS BAY     0700          270/ 19/ 20 1004.9R
NANTUCKET SOUND  0740      36  260/ 14/ 16   N/A
MASS BAY-STELLWA 0704   38     280/ 17/ 21 1000.5S  1 7/8  3/ 4
ISLE OF SHOALS   0700   34     270/ 19/ 20 1000.3F
S OF BLOCK IS    0726      38                N/A          10/10
$$

......................KEY.........................
  SKY/WX - SKY CONDITION/PRESENT WEATHER
  TMP    - TEMPERATURE IN FAHRENHEIT
  DWPT   - DEWPOINT IN FAHRENHEIT
  RH     - RELATIVE HUMIDITY IN PERCENT
  WIND   - DIRECTION AND SPEED IN MPH
  PRES   - MEAN SEA LEVEL PRESSURE IN INCHES OF HG
  WCI    - WIND CHILL INDEX
  VSB    - VISIBILITY IN MILES
  HX     - HEAT INDEX
  TC     - TEMPERATURE IN CELSIUS
  VRB    - VARIABLE WIND DIRECTION
  N/A    - NOT AVAILABLE
  
      

Other recent Regional Weather Roundups

Fri Feb 26, 6:04am

Fri Feb 26, 5:04am

Fri Feb 26, 4:04am

Fri Feb 26, 3:04am

Fri Feb 26, 2:04am

Fri Feb 26, 1:04am

Fri Feb 26, 12:04am

Thu Feb 25, 11:04pm

Thu Feb 25, 10:04pm

Thu Feb 25, 9:04pm

Thu Feb 25, 8:05pm

Thu Feb 25, 7:05pm

Thu Feb 25, 6:04pm

Thu Feb 25, 5:04pm

Thu Feb 25, 4:05pm

Thu Feb 25, 3:05pm

Thu Feb 25, 2:04pm

Thu Feb 25, 1:04pm

Thu Feb 25, 12:05pm

Thu Feb 25, 11:04am

Thu Feb 25, 10:04am

Thu Feb 25, 9:04am

Thu Feb 25, 8:04am

Thu Feb 25, 7:04am

Thu Feb 25, 6:04am

Thu Feb 25, 5:04am

Thu Feb 25, 4:04am

Thu Feb 25, 3:04am

Thu Feb 25, 2:04am

Thu Feb 25, 1:04am

Thu Feb 25, 12:04am

Wed Feb 24, 11:04pm

Wed Feb 24, 10:05pm

Wed Feb 24, 9:04pm

Wed Feb 24, 8:04pm

Wed Feb 24, 7:04pm

Wed Feb 24, 6:04pm

Wed Feb 24, 5:04pm

Wed Feb 24, 4:04pm

Wed Feb 24, 3:04pm

Wed Feb 24, 2:05pm

Wed Feb 24, 1:05pm

Wed Feb 24, 12:05pm

Wed Feb 24, 11:04am

Wed Feb 24, 10:04am

Wed Feb 24, 9:04am

Wed Feb 24, 8:04am

Wed Feb 24, 7:04am

Wed Feb 24, 6:04am

Wed Feb 24, 5:04am

Wed Feb 24, 4:04am

Wed Feb 24, 3:04am

Wed Feb 24, 2:04am

Wed Feb 24, 1:04am

Wed Feb 24, 12:04am

Tue Feb 23, 11:04pm

Tue Feb 23, 10:04pm

Tue Feb 23, 9:04pm

Tue Feb 23, 8:05pm

Tue Feb 23, 7:04pm

Tue Feb 23, 6:04pm

Tue Feb 23, 5:04pm

Tue Feb 23, 4:05pm

Tue Feb 23, 3:04pm

Tue Feb 23, 2:04pm

Tue Feb 23, 1:04pm

Tue Feb 23, 12:04pm

Tue Feb 23, 11:04am

Tue Feb 23, 10:04am

Tue Feb 23, 9:04am

Tue Feb 23, 7:04am

Tue Feb 23, 6:04am

Tue Feb 23, 5:04am

Tue Feb 23, 4:04am

Tue Feb 23, 2:04am

Tue Feb 23, 1:04am

Tue Feb 23, 12:04am

Mon Feb 22, 11:04pm

Mon Feb 22, 10:04pm

Mon Feb 22, 9:04pm

Mon Feb 22, 8:04pm

Mon Feb 22, 7:04pm

Mon Feb 22, 6:04pm

Mon Feb 22, 5:04pm

Mon Feb 22, 4:05pm

Mon Feb 22, 3:04pm

Mon Feb 22, 2:05pm

Mon Feb 22, 1:04pm

Mon Feb 22, 12:05pm

Mon Feb 22, 11:04am

Mon Feb 22, 10:04am

Mon Feb 22, 9:05am

Mon Feb 22, 8:04am

Mon Feb 22, 7:04am

Mon Feb 22, 6:04am

Mon Feb 22, 5:04am

Mon Feb 22, 4:04am

Mon Feb 22, 3:04am

Mon Feb 22, 2:04am

Mon Feb 22, 1:04am

Mon Feb 22, 12:04am

Sun Feb 21, 11:04pm

Sun Feb 21, 10:05pm

Sun Feb 21, 9:04pm

Sun Feb 21, 8:04pm

Sun Feb 21, 7:04pm

Sun Feb 21, 6:04pm

Sun Feb 21, 5:04pm

Sun Feb 21, 4:05pm

Sun Feb 21, 3:04pm

Sun Feb 21, 2:04pm

Sun Feb 21, 1:05pm

Sun Feb 21, 12:05pm

Sun Feb 21, 11:04am

Sun Feb 21, 10:05am

Sun Feb 21, 9:04am

Sun Feb 21, 8:04am

Sun Feb 21, 7:04am

Sun Feb 21, 6:04am

Sun Feb 21, 5:04am

Sun Feb 21, 4:04am

Sun Feb 21, 3:04am

Sun Feb 21, 2:04am

Sun Feb 21, 1:04am

Sun Feb 21, 12:04am

Sat Feb 20, 11:04pm

Sat Feb 20, 10:04pm

Sat Feb 20, 9:04pm

Sat Feb 20, 8:04pm

Sat Feb 20, 7:04pm

Sat Feb 20, 6:04pm

Sat Feb 20, 5:04pm

Sat Feb 20, 4:05pm

Sat Feb 20, 3:04pm

Sat Feb 20, 2:04pm

Sat Feb 20, 1:05pm

Sat Feb 20, 12:05pm

Sat Feb 20, 11:04am

Sat Feb 20, 10:05am

Sat Feb 20, 9:04am

Sat Feb 20, 8:04am

Sat Feb 20, 7:04am

Sat Feb 20, 6:04am

Sat Feb 20, 5:04am

Sat Feb 20, 4:04am

Sat Feb 20, 3:04am

Sat Feb 20, 2:04am

Sat Feb 20, 1:04am

Sat Feb 20, 12:04am

Fri Feb 19, 11:04pm

Fri Feb 19, 10:05pm

Fri Feb 19, 9:04pm

Fri Feb 19, 8:04pm

Fri Feb 19, 7:04pm

Fri Feb 19, 6:04pm

Fri Feb 19, 5:04pm

Fri Feb 19, 4:05pm

Fri Feb 19, 3:04pm

Fri Feb 19, 2:04pm

Fri Feb 19, 1:05pm

Fri Feb 19, 12:05pm

Fri Feb 19, 11:04am

Fri Feb 19, 10:04am

Fri Feb 19, 9:04am

Fri Feb 19, 8:04am

Fri Feb 19, 7:04am

Meta data:

ID: 337d4c6a-d14e-4ae7-ac83-c809bf03326a
Link: https://api.weather.gov/products/337d4c6a-d14e-4ae7-ac83-c809bf03326a